This is the latest recevied weather packets stored in our database for station/object WW5JC. If no packets are shown the sender has not sent any weather packets the latest 10 day(s).
| Time | Temp. | Humidity | Pressure | Rain* | Wind** | Luminosity | Snow |
|---|---|---|---|---|---|---|---|
| 1788557613 | 35.56° C | 47% | 1014 hPa | 0 mm | - | 222 W/m² | - |
| 1788557309 | 36.11° C | 46% | 1014.1 hPa | 0 mm | - | 94 W/m² | - |
| 1788557009 | 35.56° C | 47% | 1014 hPa | 0 mm | - | 395 W/m² | - |
| 1788556704 | 36.67° C | 46% | 1014.2 hPa | 0 mm | - | 442 W/m² | - |
| 1788556399 | 36.67° C | 45% | 1014 hPa | 0 mm | - | 457 W/m² | - |
| 1788556094 | 36.11° C | 45% | 1013.9 hPa | 0 mm | - | 483 W/m² | - |
| 1788555789 | 35.56° C | 47% | 1014.3 hPa | 0 mm | - | 437 W/m² | - |
| 1788555485 | 35.56° C | 47% | 1014.3 hPa | 0 mm | - | 88 W/m² | - |
| 1788555181 | 36.11° C | 46% | 1014.4 hPa | 0 mm | - | 147 W/m² | - |
| 1788554877 | 36.11° C | 47% | 1014.4 hPa | 0 mm | - | 524 W/m² | - |
| 1788554573 | 35.56° C | 47% | 1014.4 hPa | 0 mm | - | 463 W/m² | - |
| 1788554269 | 36.67° C | 46% | 1014.5 hPa | 0 mm | - | 567 W/m² | - |
| 1788553965 | 36.11° C | 46% | 1014.7 hPa | 0 mm | - | 535 W/m² | - |
| 1788553660 | 36.67° C | 46% | 1014.7 hPa | 0 mm | - | 575 W/m² | - |
| 1788553356 | 36.11° C | 46% | 1014.7 hPa | 0 mm | - | 580 W/m² | - |
| 1788553063 | 36.11° C | 46% | 1014.7 hPa | 0 mm | - | 574 W/m² | - |
| 1788552745 | 36.67° C | 46% | 1015 hPa | 0 mm | - | 591 W/m² | - |
| 1788552441 | 36.11° C | 46% | 1015.2 hPa | 0 mm | - | 606 W/m² | - |
| 1788552135 | 36.11° C | 46% | 1015.2 hPa | 0 mm | - | 596 W/m² | - |
| 1788551834 | 36.11° C | 48% | 1015.3 hPa | 0 mm | - | 614 W/m² | - |
| 1788551533 | 35.56° C | 48% | 1015.3 hPa | 0 mm | - | 615 W/m² | - |
| 1788551228 | 35.56° C | 49% | 1015.3 hPa | 0 mm | - | 633 W/m² | - |
| 1788550922 | 35° C | 48% | 1015.5 hPa | 0 mm | - | 654 W/m² | - |
| 1788550617 | 34.44° C | 52% | 1015.5 hPa | 0 mm | - | 138 W/m² | - |
| 1788550314 | 35.56° C | 49% | 1015.7 hPa | 0 mm | - | 176 W/m² | - |
* Rain latest hour (hover to see other rain measurements)
** Current wind speed in m/s (hover to see current wind gust speed)